Погода в Аяне

Погода в Аяне : погода сейчас, прогноз погоды и архив. Всё, что Вы хотите узнать о погоде в Аяне!

Хотите узнать прогноз погоды в Аяне? Тогда Вам сюда: Погода в Аяне

Поиск расширенной информации на нашем сайте:

Другие новости

Новости СМИ2

Главная страница сайта

Новости сайта

03.07.2017

Напоминаем, что на нашем специализированном сайте Метеоцентр.Азия вы можете получить высокодетализированные автоматические прогнозы погоды по пунктам России, СНГ и мира в авиационном формате (включающие направление и скорость ветра, видимость, явления погоды, количество и форму облачности, нижнюю и верхнюю границу облачности).


Погода в Аяне - сегодня

Время (UTC), дата Ветер
(°,м/с) 
Видим.   Явления Облачность Т
(°С)
Тd
(°С)
f(%) Тe
(°С)
Pmin
(гПа)
dP
(гПа)
Po
(мм)
O2
(г/м3)
Тmin Tmax R s Состояние
почвы
00 19.05.18 230 (ЮЗ) 20000 м    3/0 верхняя 
[Ci fib]
+4.4 +1.2 80 +3  1014.6  1.4  760  301           
03 19.05.18 170 (Ю) 20000 м    ясно 
+8.9 +3.2 67 +7  1014.8  0.2  761  296           
06 19.05.18 190 (Ю) 6{11}  20000 м    4/1 200 м средняя, верхняя 
[St|Ac lent|Ci fib]
+6.5 +3 78 +4  1015.1  0.3  761  299           
12 19.05.18 170 (Ю) 4{11}  20000 м    10/0 средняя, верхняя 
[Ac trans|Cs]
+6.4 +0.9 68 +5  1016.3  1.1  762  300           
15 19.05.18 050 (СВ) 20000 м    8/0 средняя 
[Ac trans]
+4.1 +1.5 83 +4  1016.6  0.2  762  302           
18 19.05.18 040 (СВ) 20000 м    10/3 300 м средняя 
[St|Ac trans]
+3 +1.8 92 +2  1016.5  0.1  762  303           
21 19.05.18 030 (СВ) 20000 м    8/8 300 м 
[St]
+3.9 +2.2 89 +2  1015.8  -0.7  761  302  +2.7        влажная 
12 20.05.18 010 (С) 10 км  слаб. дождь  10/10 1000 м 
[Sc]
+3.4 +1.7 89 +1  1015.9  0.3  761  303           
15 20.05.18 010 (С) 20000 м  {дождь}  10/10 1000 м 
[Sc]
+2.8 +1.2 89 +1  1017  1.1  762  304           
18 20.05.18 020 (С) 20000 м  {дождь}  3/0 верхняя 
[Ci fib]
-0.5 -1.3 94 1018.6  1.6  763  308           
00 21.05.18 220 (ЮЗ) 20000 м    5/0 средняя 
[Ac trans]
+8.6 +3.8 72 +8  1018.8  -0.2  764  298           
03 21.05.18 190 (Ю) 20000 м    4/0 верхняя 
[Cc]
+11.7 +2.1 52 +11  1017  -1.8  762  294           
06 21.05.18 200 (Ю) 20000 м    8/0 верхняя 
[Ci sp]
+9.7 +1.9 58 +9  1014.6  -2.4  760  296           
12 21.05.18 220 (ЮЗ) 20000 м    6/0 средняя, верхняя 
[Ac lent|Ci fib]
+4 +0 75 +4  1010.7  -1.1  758  301           
15 21.05.18 тихо ()   20000 м    4/0 верхняя 
[Ci fib]
+1 -0.8 88 +1  1008.6  -2.1  756  304           
18 21.05.18 010 (С) 20000 м    9/0 средняя 
[Ac trans]
+3.7 +0.7 81 +3  1006.7  -1.8  755  300           
00 22.05.18 020 (С) 20000 м    10/0 средняя, верхняя 
[Ac cast|Cs]
+11.3 -1.6 41 +11  1004.4  -0.9  753  291           
03 22.05.18 020 (С) 20000 м    10/0 средняя, верхняя 
[Ac As|Cs]
+10.2 -1.3 45 +9  1003.4  -1  752  292           
06 22.05.18 020 (С) 20000 м    10/0 средняя 
[Ac und]
+9.7 -0.6 49 +9  1002.8  -0.6  752  292           
12 22.05.18 020 (С) 20000 м    10/0 средняя, верхняя 
[Ac trans|Cs]
+6.9 +0.3 63 +8  1005.8  1.7  754  296           
15 22.05.18 030 (СВ) 20000 м    6/0 средняя 
[Ac trans]
+3.7 -1 71 +5  1005.4  -0.4  754  300           
18 22.05.18 тихо ()   20000 м    8/0 средняя 
[Ac trans]
+3.4 -0.8 74 +3  1005.4  0.1  753  300           
00 23.05.18 030 (СВ) 20000 м    10/0 средняя 
[Ac As]
+9 -1.2 49 +8  1007.7  1.3  755  295           
03 23.05.18 010 (С) 20000 м    8/0 средняя, верхняя 
[Ac trans|Cc]
+9.7 -1.2 47 +9  1007.8  0.1  755  294           
06 23.05.18 010 (С) 20000 м    4/0 верхняя 
[Cc]
+9.3 -0.1 52 +8  1007.1  -0.7  755  294           
Время (UTC), дата Ветер
(°,м/с) 
Видим.   Явления Облачность Т
(°С)
Тd
(°С)
f(%) Тe
(°С)
Pmin
(гПа)
dP
(гПа)
Po
(мм)
O2
(г/м3)
Тmin Tmax R s Состояние
почвы

Для получения пояснительной информации подведите курсор к названию столбца.

ПОГОДА в Аяне - архив

Всё, что Вы хотите узнать о погоде в Аяне - удобно и подробно!

Выберите нужную дату (начиная с 1 января 2015* года) и нажмите кнопку "Найти".
Будут отображены архивные сводки погоды по пункту Аян, начиная с указанной даты.


Отображать данные в формате CSV (для использования в таблицах Excel)


Внимание! Наш архив погоды предназначен исключительно для личного некоммерческого использования в познавательных целях. Если Вам необходимы официальные справки о состоянии погоды (для производственных, юридических, коммерческих и т.п. целей), обращайтесь в органы Росгидромета.

*Примечание: данная дата относится к архиву по метеостанциям СССР (Россия, СНГ, Балтия).
Архив по метеостанциям Зарубежной Европы и Азии (кроме Китая) хранится 10 дней, по другим регионам земного шара (Китай, Африка, Америка, Австралия, Океания) - 1 день.

Аян - район местоположения метеостанции


Название, широта, долгота, высота метеостанции:
Аян 56.4°ш. 138.2°д. 8 м над ур. моря [Российская Федерация]

Дополнительная информация

В oтличие oт бoльшинства пoгoдных сайтoв мы публикуем пoдрoбную метеoинфoрмацию в детальнoм прoфессиoнальнoм фoрмате.

Характеристики температуры и влажнoсти вoздуха измеряются на высoте 2 м в тени вдали oт зданий и деревьев.
Скoрoсть ветра измеряется на высoте 10 м (на урoвне рoста челoвека скoрoсть ветра ниже в 1.5-2 раза). Если метеoстанция нахoдится в гoрoде или в лесу, тo скoрoсть ветра занижена на 2-4 м/с пo сравнению с oткрытым местoм. Скoрoсть ветра над акватoриями крупных рек и oзёр, а также на вершинах хoлмoв на 2-5 м/с выше, чем в oбычных услoвиях.
Атмoсфернoе давление в разных тoчках местнoсти мoжет значительнo oтличаться oт давления на метеoстанции, в зависимoсти oт услoвий рельефа (при пoдъёме на 10 м давление пoнижается примернo на 1 мм рт.ст.).